Regional Weather Roundup
Issued by NWS

Home | Current Version | Previous Version | Text Only | Print | Product List | Glossary On
Versions: 1 2 3 4 5 6 7 8 9 10 11 12 13 14 15 16 17 18 19 20 21 22 23 24 25 26 27 28 29 30 31 32 33 34 35 36 37 38 39 40 41 42 43 44 45 46 47 48 49 50
000
ASUS43 KMKX 070100
RWRWI

WISCONSIN REGIONAL WEATHER ROUNDUP
NATIONAL WEATHER SERVICE MILWAUKEE/SULLIVAN WI
800 PM CDT WED MAY 06 2015

NOTE: "FAIR" INDICATES FEW OR NO CLOUDS BELOW 12,000 FEET WITH NO
SIGNIFICANT WEATHER AND/OR OBSTRUCTIONS TO VISIBILITY.

WIZ001-002-006>008-014>016-023>028-070200-
NORTHWEST WISCONSIN

CITY           SKY/WX    TMP DP  RH WIND       PRES   REMARKS
SUPERIOR ARPT  CLOUDY    44  35  71 E9        29.95S
ASHLAND        MOCLDY    51  44  77 NE8       29.96F
HAYWARD        MOCLDY    70  56  61 SE7       29.95R
SIREN          CLOUDY    73  54  52 S15       29.91S
CUMBERLAND     LGT RAIN  68  54  60 S13       29.94S
RICE LAKE      RAIN      72  57  60 SE9       29.95S
CHETEK         LGT RAIN  71  60  67 E5        29.94F
LADYSMITH      CLOUDY    72  58  62 SE10      29.99R
EAU CLAIRE     HVY RAIN  65  60  84 S13G25    29.97R
MENOMONIE      HVY RAIN  66  63  91 SW13      29.96R
NEW RICHMOND   LGT RAIN  64  60  87 SE9       29.91F
OSCEOLA        LGT RAIN  66  61  83 SE16G22   29.92F
$$

WIZ003>005-009-010-017-018-070200-
NORTH CENTRAL WISCONSIN

CITY           SKY/WX    TMP DP  RH WIND       PRES   REMARKS
MANITOWISH WTR PTCLDY    66  58  74 SE7       30.02S
ARBOR VITAE    MOCLDY    67  57  70 S9        30.03S
WOODRUFF       MOCLDY    67  57  70 S9        30.03S
RHINELANDER    CLOUDY    66  56  70 SE10      30.06R
EAGLE RIVER    MOCLDY    67  54  61 S8        30.04S
LAND O LAKES   MOCLDY    68  53  57 SE5       30.05S
PHILLIPS       CLOUDY    66  58  75 SE7       30.00F
TOMAHAWK       CLOUDY    65  57  74 SE6       30.04S
MEDFORD        MOCLDY    68  57  68 SE12G17   30.01S
MERRILL        CLOUDY    67  59  76 SE12      30.04F
$$

WIZ029-030-035-036-043>047-070200-
CENTRAL WISCONSIN

CITY           SKY/WX    TMP DP  RH WIND       PRES   REMARKS
WAUSAU         MOCLDY    67  57  70 SE10      30.02S
MOSINEE        CLEAR     66  57  72 SE8       30.04S
MARSHFIELD     CLOUDY    69  58  67 SE10      30.00F
STEVENS POINT  MOCLDY    66  56  70 SE7       30.04S
WAUPACA        PTCLDY    68  57  67 E7        30.05F
WAUTOMA        NOT AVBL
WISC RAPIDS    MOCLDY    70  56  61 SE8       30.02F
CAMP DOUGLAS   NOT AVBL
$$

WIZ011>013-019>022-031-037>040-048>050-070200-
NORTHEAST WISCONSIN

CITY           SKY/WX    TMP DP  RH WIND       PRES   REMARKS
ANTIGO         CLOUDY    63  57  80 SE14      30.07F
SHAWANO        MOCLDY    64  56  74 E7        30.08S
OCONTO         MOCLDY    58  54  85 E6        30.09S
STURGEON BAY   MOCLDY    52  41  66 E7        30.13R
GREEN BAY      PTCLDY    64  56  75 SE8       30.08S HAZE
MANITOWOC      NOT AVBL
APPLETON       PTCLDY    64  55  72 SE9       30.07F
CLINTONVILLE   MOCLDY    64  55  72 E5        30.06F
OSHKOSH        MOCLDY    65  56  72 SE7       30.06S
$$

WIZ032>034-041-042-053>061-070200-
SOUTHWEST WISCONSIN

CITY           SKY/WX    TMP DP  RH WIND       PRES   REMARKS
LA CROSSE      LGT RAIN  68  61  78 SE7       29.94F
SPARTA         CLOUDY    73  58  60 SE13      29.96F
VIROQUA        CLOUDY    66  60  80 SW10      29.99R
BOSCOBEL       CLOUDY    72  58  61 SW9       29.99R
PRAIRIE DU CHI CLOUDY    69  58  69 S7        29.98S
PLATTEVILLE    MOCLDY    71  59  66 SW15G26   30.02R
$$

WIZ056-057-062-063-064-067-068-070200-
SOUTH CENTRAL WISCONSIN

CITY           SKY/WX    TMP DP  RH WIND       PRES   REMARKS
REEDSBURG      PTCLDY    72  63  72 E6        29.99F
BARABOO/DELLS  PTCLDY    71  60  69 E9        30.01F
LONE ROCK      NOT AVBL
MINERAL POINT  MOCLDY    73  52  46 SE8       30.00S
MADISON        MOCLDY    71  61  70 SE10      30.02S
MIDDLETON      PTCLDY    73  61  65 SE12      30.02S
WATERTOWN      PTCLDY    65  57  75 E8        30.04S
MONROE         MOCLDY    72  55  56 SE7       30.01F
JANESVILLE     PTCLDY    70  61  73 E13       30.02F HAZE
$$

WIZ051-052-058>065-066-070>072-070200-
SOUTHEAST WISCONSIN

CITY           SKY/WX    TMP DP  RH WIND       PRES   REMARKS
MILWAUKEE      FOG       47  44  90 NE6       30.10R VSB 1/4
WAUKESHA       MOCLDY    59  54  82 E6        30.09S
MILWAUKEE/TIMM NOT AVBL
RACINE         FOG       46  45  96 N6        30.10S VSB 1/4
BURLINGTON     PTCLDY    60  55  83 E5        30.07F HAZE
KENOSHA        CLOUDY    52  51  97 E5        30.08S FOG
FOND DU LAC    MOCLDY    63  55  75 SE9       30.06S
SHEBOYGAN      MOCLDY    49  46  90 E5        30.10S
WEST BEND      MOCLDY    57  52  82 E6        30.08F HAZE
JUNEAU         MOCLDY    64  57  79 E7        30.06S
$$

LSZ147-162-070200-
LAKE SUPERIOR

STATION/POSITION TIME  TEMP    WIND        PRES    WAVE
                       AIR SEA DIR/SP/G            HT/PER
                 (UTC) (F)     (DEG/KT/KT) (MB)    (FT/S)
W MID LAKE BUOY  2350   39 36   50/ 12/ 12 1016.5F   1
DEVILS ISLAND    0000   42      60/  8/  9 1016.1F
PORT WING        0000   42      30/ 18/ 21 1014.6F
SAXON HARBOR     0000   47        CALM     1014.9F
$$

LMZ867-665-643>646-070200-
LAKE MICHIGAN

STATION/POSITION TIME  TEMP    WIND        PRES    WAVE
                       AIR SEA DIR/SP/G            HT/PER
                 (UTC) (F)     (DEG/KT/KT) (MB)    (FT/S)
CHAMBERS ISLAND  0000   51     320/  3/  4 1019.6S
NORTHPORT PIER   0000   45     130/  5/  7 1019.6F
SISTER BAY       0017   55     110/  2/  5   N/A
KEWAUNEE LAKESHO 0000   44      60/  2/  5 1018.8F
SHEBOYGAN LAKESH 0000   43      60/  5/  5 1020.2F
PORT WASHINGTON  0040   45      60/  4/  5 1019.6F
ATWATER BUOY     0000   43      50/  4/  6 1020.4F
MILWAUKEE LAKESH 0000   44      50/  7/  8   N/A
KENOSHA   LAKESH 0000   45      20/  6/  7 1018.6F
$$

TC  - TEMPERATURE IN CELSIUS
VSB - VISIBILITY IN STATUTE MILES
WCI - WIND CHILL INDEX
HX  - HEAT INDEX



USA.gov is the U.S. government's official web portal to all federal, state and local government web resources and services.